Dewpoint
23 17 13 17 17 19 17 13 13 6 3 6 8 9 11 11 11 13 14 16 18 19 22 23 24 25 27 28 30 31 31 31 32 33 33 32 33 35 35 37 37 37 36 38
15 11 6 4 5 14 16 15 11 10 11 13 12 11 10 11 13 13 17 18 18 18 19 21 23 25 25 28 29 31 31 31 30 31 30 29 32 33 33 35 36 36 36 37
15 12 12 13 13 9 7 6 11 11 13 13 12 11 12 14 15 15 17 19 19 20 21 23 25 25 25 26 29 29 29 29 28 29 26 27 29 31 32 34 36 35 35 35
20 15 12 13 6 2 6 9 9 9 9 10 12 12 14 15 16 17 19 20 20 22 23 24 25 26 27 26 26 27 27 26 27 26 23 26 29 30 32 33 34 34 34 33
21 17 15 14 10 7 5 6 8 9 11 12 12 14 16 16 20 21 22 24 25 25 25 26 27 27 26 26 27 27 26 26 26 24 24 26 28 30 31 31 32 32 31 32
21 18 14 18 13 14 11 7 15 17 17 17 18 17 17 21 21 21 21 21 21 22 22 24 26 28 28 27 28 28 27 25 23 24 25 27 28 29 30 31 29 29 30 31
21 19 17 16 13 15 9 21 21 19 19 20 20 21 22 22 20 20 19 18 18 18 18 19 21 26 28 28 29 28 27 22 22 24 25 27 27 28 28 28 29 30 29 30
22 20 18 16 11 10 17 18 18 19 19 20 20 20 20 19 18 18 18 18 18 17 17 18 19 19 24 27 30 28 22 20 21 23 24 22 26 27 28 28 29 29 30 29
23 22 22 19 15 17 17 18 20 22 22 22 22 21 20 20 20 19 19 19 19 18 18 18 19 18 25 33 35 34 22 20 21 23 23 24 25 26 27 28 28 29 29 29
20 20 18 16 17 20 22 22 23 24 24 24 24 24 23 22 21 20 20 20 20 20 19 19 20 19 21 33 34 28 20 21 23 23 24 24 25 27 27 28 29 29 29 30
18 19 18 16 22 23 23 25 24 23 23 23 23 23 25 26 25 26 25 21 21 22 22 23 21 21 29 35 37 25 21 23 24 24 25 26 26 27 28 28 29 29 29 29
17 22 22 22 24 24 25 24 22 22 22 23 24 26 28 30 32 33 34 34 35 35 32 25 28 31 35 37 26 22 22 23 24 25 26 26 26 26 30 31 30 29 29 28
22 23 24 25 24 25 23 22 21 20 21 21 22 23 24 26 28 31 32 32 33 35 37 36 34 34 34 33 30 26 25 25 25 25 26 25 25 27 28 30 30 29 29 29
26 27 24 25 24 24 22 19 19 18 18 19 19 21 22 24 25 27 29 32 32 34 34 35 35 35 37 36 33 32 30 28 26 26 28 28 27 28 28 27 26 27 28 28
25 24 25 26 26 21 20 18 18 18 18 17 17 19 19 21 22 23 25 30 32 32 33 33 32 33 35 35 34 32 31 29 28 29 28 28 28 27 27 27 26 26 27 27
23 24 22 22 20 19 18 16 15 15 15 16 17 17 19 19 19 21 24 26 30 32 33 33 32 33 35 35 35 34 31 29 29 29 29 27 26 25 26 26 25 24 24 25
21 19 19 18 17 15 15 15 15 15 15 16 17 19 20 21 21 19 23 27 29 32 33 33 32 33 34 34 34 34 34 33 31 29 28 27 26 25 25 24 24 24 23 23
19 18 17 16 15 15 16 17 17 16 17 18 20 21 20 20 19 22 23 25 28 29 29 30 32 32 33 33 33 32 30 29 29 28 27 26 25 25 24 23 23 23 24 23
18 18 18 19 19 18 19 19 19 20 21 21 20 17 17 20 23 24 26 27 28 28 28 29 29 30 31 33 32 30 29 29 27 26 25 25 24 23 23 23 22 23 23 22
20 19 19 19 20 22 24 24 23 23 23 21 19 22 23 24 25 26 27 26 27 29 29 29 30 30 33 34 34 33 29 28 26 25 24 23 23 22 23 23 22 21 22 23
20 21 21 20 20 23 25 27 26 25 23 22 25 25 25 26 26 27 27 26 25 28 31 31 32 32 33 30 31 31 30 29 25 23 22 22 22 22 21 22 22 22 22 22
19 19 21 23 23 25 27 28 27 25 25 26 25 25 25 26 25 25 26 27 31 29 28 27 29 30 28 27 26 25 24 23 21 21 21 22 22 22 22 22 22 22 22 22
17 17 18 21 24 24 26 28 27 27 27 25 25 26 26 26 28 28 26 27 27 27 27 24 24 25 23 22 22 22 22 21 22 22 22 22 22 22 22 22 21 21 21 23
18 20 22 23 25 26 25 25 26 24 24 25 24 26 29 27 27 26 26 25 24 23 22 22 22 22 21 22 22 22 22 21 21 21 21 21 22 22 21 21 22 22 23 23
18 20 21 19 20 22 24 21 20 22 23 22 25 26 26 26 26 25 25 23 22 21 21 21 21 21 21 21 21 21 21 21 21 21 21 21 21 21 22 22 22 22 22 22
17 17 17 18 20 22 23 22 21 22 23 24 25 26 26 25 25 25 23 22 21 20 20 20 21 20 20 20 21 20 19 19 20 20 21 21 20 20 21 21 21 20 21 21
18 18 19 20 21 21 21 21 21 23 24 26 25 25 25 25 24 23 21 20 20 19 19 19 20 19 19 19 19 19 19 19 19 20 20 20 21 21 19 19 20 20 18 18
Wind_Speed
3 7 9 10 12 16 18 15 9 6 15 17 19 18 16 15 14 12 15 14 14 12 9 8 10 11 13 12 7 7 10 11 13 11 12 12 11 12 13 13 14 14 16 14
4 9 11 15 17 21 23 22 24 25 31 21 18 13 11 11 13 14 15 16 15 13 14 12 11 10 13 11 10 6 10 10 12 10 12 13 13 13 14 13 13 13 15 16
2 2 7 13 19 21 22 22 22 22 21 18 16 17 15 15 16 17 15 16 19 16 12 9 9 10 10 13 9 9 11 12 11 10 12 13 12 14 13 15 14 12 13 15
2 2 4 2 1 4 5 5 9 15 16 15 15 15 12 12 16 18 19 17 16 12 12 14 14 12 11 11 10 11 13 11 11 8 12 13 14 14 12 13 15 14 14 12
2 5 13 10 5 3 5 8 12 14 12 11 13 17 13 13 17 18 17 13 13 14 15 15 15 15 13 14 12 11 13 11 7 9 13 13 14 13 13 13 14 14 13 14
5 3 4 5 5 5 5 5 9 10 12 15 18 17 17 23 22 23 24 24 24 23 23 20 17 17 16 12 15 13 13 5 6 10 13 14 14 12 12 13 14 13 13 11
11 7 8 6 6 4 1 3 10 13 16 18 18 18 23 25 24 24 25 26 26 27 26 25 23 19 18 18 17 15 13 4 7 10 13 14 14 11 12 13 14 13 13 11
9 6 8 6 3 3 9 11 14 17 18 19 20 22 23 24 24 25 25 26 26 26 24 24 22 23 20 18 14 13 7 5 8 12 12 13 13 14 12 15 13 13 14 13
11 6 4 2 5 9 12 11 14 18 20 21 22 23 24 24 24 24 25 24 23 23 25 25 22 19 15 7 11 12 12 9 9 11 12 12 14 13 14 12 13 13 13 13
3 8 9 3 7 12 14 13 17 21 24 25 26 28 28 26 25 25 25 24 23 25 24 24 24 21 24 11 12 12 9 10 7 12 12 12 13 12 12 13 13 13 13 14
9 14 12 3 14 13 13 16 16 17 20 23 24 24 25 25 25 24 27 23 22 23 23 25 25 22 8 8 3 15 9 8 10 11 12 11 12 13 13 13 14 16 16 16
6 9 5 8 12 12 12 13 14 17 19 21 24 27 27 25 25 27 27 31 32 33 31 28 21 18 15 9 11 5 7 7 12 11 11 12 12 15 13 13 17 21 22 20
5 7 7 7 8 12 10 11 11 14 15 18 18 19 22 22 24 25 25 26 25 29 29 27 24 19 20 19 18 12 10 10 13 12 12 14 13 15 18 12 11 16 20 22
10 7 5 8 8 9 10 12 14 14 14 15 18 19 20 21 21 21 22 23 22 16 17 22 23 20 18 19 19 18 17 17 14 14 13 14 14 14 16 19 21 19 13 19
7 5 2 4 7 9 12 15 18 18 20 20 21 21 23 24 22 23 23 19 20 18 14 12 12 14 14 14 15 15 16 16 15 14 13 16 17 17 17 17 19 21 19 16
3 2 5 6 9 12 15 16 18 19 19 20 19 21 21 22 23 24 23 22 20 21 19 16 16 15 10 11 15 15 16 17 17 15 15 14 15 19 19 18 18 20 20 17
4 6 8 11 13 15 16 16 17 18 20 19 22 22 22 21 24 23 24 22 20 20 21 21 23 19 15 14 15 12 12 14 17 17 16 16 17 19 19 19 19 18 21 22
6 8 10 12 13 15 15 17 18 20 19 22 21 18 20 21 23 24 24 23 22 23 22 22 22 21 19 18 16 15 15 14 14 16 16 17 18 18 19 21 22 22 21 20
9 12 15 17 17 16 16 17 18 18 19 20 20 21 23 23 22 23 23 25 25 24 23 20 21 19 19 21 21 15 14 14 14 15 16 19 20 19 19 20 21 22 21 22
15 16 18 20 19 19 18 19 18 19 20 21 20 21 22 23 23 24 25 26 24 23 24 25 24 22 22 19 11 10 11 12 13 16 18 19 20 21 20 20 21 22 21 21
17 19 19 20 20 19 16 15 15 18 20 20 18 20 21 24 24 24 24 23 23 20 19 20 21 17 12 11 12 9 11 13 17 18 19 19 19 20 20 21 20 21 22 21
16 17 17 17 16 16 13 14 16 18 19 18 21 22 21 24 24 23 22 20 13 14 14 16 15 15 15 16 14 14 14 15 17 17 19 19 19 20 20 21 21 21 20 21
17 19 19 17 18 21 20 15 15 17 18 18 20 22 22 22 22 18 15 16 15 16 15 17 18 18 18 16 15 16 16 17 17 18 18 18 19 19 20 21 21 22 22 22
18 17 19 21 20 20 18 19 15 14 15 15 17 16 13 13 18 12 13 16 17 17 18 18 18 19 19 15 15 15 16 17 17 18 19 19 19 19 20 21 21 21 22 23
17 20 19 18 20 18 15 17 15 13 13 17 16 15 13 11 14 17 15 16 17 18 18 18 19 19 15 15 16 16 16 17 17 19 19 19 19 20 20 21 21 22 22 23
19 19 19 19 18 18 15 16 15 13 13 16 16 14 12 13 14 14 15 16 17 18 18 18 17 17 17 17 16 16 17 18 18 17 19 19 20 21 21 21 22 22 22 22
19 19 19 19 18 17 17 17 14 12 13 14 17 16 15 15 14 14 16 16 16 17 18 18 17 18 18 17 16 16 17 18 19 18 19 19 18 18 20 21 21 21 22 23
Wind_Direction
215 229 208 203 203 202 211 220 225 264 306 319 322 315 314 313 306 285 282 279 290 295 301 295 306 315 319 311 343 320 327 314 318 318 322 325 328 324 325 328 336 342 338 334
266 238 246 258 250 219 215 226 247 265 276 283 289 301 288 282 293 294 287 291 297 296 300 298 306 319 317 313 297 326 300 307 305 315 322 326 322 323 323 332 329 337 331 328
181 30 327 284 252 242 249 242 233 249 266 288 295 294 300 312 312 291 295 295 294 287 298 315 317 305 306 307 308 295 297 291 304 317 321 317 319 320 322 329 322 326 323 325
243 298 250 112 151 16 6 312 285 287 291 287 295 301 300 291 289 288 285 289 288 292 303 295 285 277 272 276 281 290 287 290 296 322 314 311 312 311 326 321 318 319 318 326
211 233 299 301 34 322 303 298 310 303 312 335 344 331 301 298 357 352 340 328 313 306 287 282 279 277 275 275 271 271 282 294 312 315 299 300 301 312 312 310 311 308 319 335
178 236 248 122 117 19 349 278 36 13 349 343 335 315 310 335 334 325 320 317 313 307 301 293 270 269 261 280 280 280 276 279 305 288 290 292 298 301 305 296 302 313 318 331
221 242 269 297 67 69 227 50 347 339 333 328 319 316 324 323 313 309 307 305 304 304 300 296 297 268 250 247 252 260 259 217 263 278 282 282 288 297 298 307 303 308 312 310
212 235 256 93 140 214 10 339 341 340 337 331 322 316 309 306 307 308 305 303 300 297 293 294 289 293 269 246 247 290 264 257 265 275 278 289 294 294 306 298 304 307 301 305
192 220 165 157 280 6 7 4 351 336 322 313 310 308 309 307 305 299 299 300 302 304 303 301 290 293 283 262 253 239 264 254 261 276 284 289 289 297 293 299 296 294 297 302
314 250 271 5 26 44 16 346 347 351 341 332 324 320 315 311 311 309 307 307 310 305 298 298 300 297 287 220 250 256 252 261 275 278 281 285 279 278 293 289 291 291 295 294
243 260 287 310 42 18 357 8 351 339 336 329 327 323 326 329 324 325 324 312 314 312 312 310 305 300 304 261 245 265 256 268 281 278 280 287 292 284 282 283 281 289 289 289
268 63 1 359 13 7 11 356 348 347 352 353 352 347 345 344 344 349 352 1 355 343 329 305 319 331 343 338 292 284 281 318 288 290 290 287 294 294 285 291 294 285 286 284
41 24 13 355 333 17 350 332 340 335 345 345 351 353 354 352 349 343 346 350 355 354 360 350 2 8 10 359 351 340 340 318 296 307 311 298 292 293 291 291 294 290 283 284
53 19 349 7 340 321 311 326 334 334 335 340 337 340 341 341 340 349 350 346 340 347 358 354 352 348 347 349 344 336 329 307 298 289 289 296 299 306 308 300 300 298 288 281
89 34 320 310 300 321 328 331 332 335 337 338 339 343 339 336 334 335 331 328 326 326 329 331 330 326 331 332 323 318 311 301 295 298 301 293 290 287 285 288 291 289 295 293
3 343 3 333 327 324 328 335 336 331 331 332 338 336 334 335 334 325 319 323 320 312 309 302 295 287 273 286 292 283 282 290 297 296 296 298 299 290 285 286 293 293 293 296
7 339 327 327 335 337 330 331 328 326 327 336 334 327 329 325 318 314 314 312 305 295 292 288 285 285 275 272 268 268 280 285 283 284 285 292 288 288 286 286 288 294 297 295
332 335 331 328 321 321 322 326 327 329 335 328 317 321 319 313 305 304 304 310 309 303 294 288 284 281 274 270 266 262 264 275 287 291 291 290 290 292 296 293 289 288 292 298
334 324 323 322 320 318 315 321 324 326 319 313 317 316 308 302 301 303 304 303 300 298 300 306 304 297 281 270 259 262 266 271 281 286 289 291 291 290 292 293 293 292 295 298
332 327 322 312 319 326 328 323 319 314 307 310 316 306 302 305 306 304 302 300 296 292 306 318 316 309 307 287 304 290 282 288 294 294 292 289 288 288 290 292 296 295 295 298
316 310 313 320 314 309 306 308 308 303 305 302 297 299 304 304 305 303 301 305 307 319 333 330 329 330 339 6 341 327 313 303 296 292 293 294 297 298 297 296 297 298 298 295
321 316 310 302 304 304 298 289 296 296 291 292 302 306 306 304 308 310 302 298 338 343 333 328 324 338 334 330 320 315 311 305 301 300 297 295 295 298 300 298 296 296 297 299
313 310 310 316 312 305 300 282 281 276 277 289 298 301 305 308 306 310 334 334 335 332 328 322 318 324 326 321 315 311 307 303 299 297 298 300 301 301 298 298 300 301 299 297
309 306 300 298 294 291 295 296 277 283 296 302 307 321 331 330 318 326 329 321 324 326 321 314 318 318 318 311 309 308 307 305 304 303 304 305 304 303 301 300 300 299 299 299
308 295 296 313 316 312 297 297 309 310 315 316 315 317 315 325 308 315 318 321 322 322 318 319 320 315 316 314 310 310 312 314 314 314 310 305 303 301 300 300 299 300 301 301
306 310 310 310 307 307 296 293 298 304 314 314 313 314 317 319 314 315 319 322 321 323 324 318 316 319 316 314 318 323 318 309 306 306 306 305 304 301 301 303 305 303 302 303
304 304 305 303 300 298 294 293 297 299 313 309 309 312 311 310 312 317 322 322 326 325 318 317 318 318 317 318 319 318 315 311 307 305 305 302 304 310 309 306 305 308 306 302